Find Starlink 6375

NORAD ID: 57342 Int'l Des: 2023-099 Owner: SPXS Country: US Constellation: starlink operational
LEOCIRCULAR

Live-Position

3D-Globus wird geladen...

Über Starlink 6375

Beschreibung wird geladen...

Nächste Überflüge

Passes for default location (London). Set your location on the main map for personalized predictions.

Höhenverlauf

Loading altitude history...

Zweizeiliger Elementsatz

1 57342U 23099Q 26124.19168977 .00000709 00000-0 35288-4 0 9993
2 57342 43.0040 295.6414 0001520 271.5105 88.5572 15.27575893154607
Epoch: 4. Mai 2026 • Age: 9 hours

Aktueller Status

Höhe 493.8 km
Geschwindigkeit 7.62 km/s
Subsatellitenpunkt -39.17°S, 108.52°E
Startdatum 16. Juli 2023
Alter 2.8 years
Typ internet

Technische Details

Klassifizierung Payload
Masse 305.00 kg
Trockenmasse 290.00 kg
Gesamtmasse 305.00 kg
Länge 0.20 m
Durchmesser 2.80 m
Spannweite 9.00 m
Form Box + pan
Hersteller SPXS
Bus-Typ Starlink
Phasenstatus In Orbit
Besitzer/Staat SPXS/US

Most Searched